Regional Weather Roundup
Issued by NWS State College, PA

Home | Current Version | Previous Version | Graphics & Text | Print | Product List | Glossary Off
Versions: 1 2 3 4 5 6 7 8 9 10 11 12 13 14 15 16 17 18 19 20 21 22 23 24 25 26 27 28 29 30 31 32 33 34 35 36 37 38 39 40 41 42 43 44 45 46 47 48 49 50

000
ASUS41 KCTP 151303
RWRCTP

REGIONAL WEATHER ROUNDUP
NATIONAL WEATHER SERVICE STATE COLLEGE PA
800 AM EST MON JAN 15 2018

Note: "fair" indicates few or no clouds below 12,000 feet with no
significant weather and/or obstructions to visibility.

* = STATION THAT DOES NOT REPORT PRECIPITATION /E.G. RAIN...SNOW...ETC/
    THUNDER OR FOG.

PAZ002>004-007>009-013>016-020>023-029>032-151400-
WESTERN PENNSYLVANIA

CITY           SKY/WX    TMP DP  RH WIND       PRES   REMARKS
ERIE           MOCLDY    11   1  64 SE15      30.42F WCI  -5
MEADVILLE      MOCLDY     8   2  76 VRB6      30.36F WCI  -2
FRANKLIN*      FAIR       7   1  76 SE10      30.38F WCI  -8
NEW CASTLE     CLOUDY    10   5  80 E5        30.41S WCI   2
BEAVER COUNTY  NOT AVBL
BUTLER*        FAIR      10   2  69 E7        30.40F WCI  -1
PITTSBURGH INT CLOUDY    10   3  73 E7        30.39S WCI  -1
PITTSBURGH     MOCLDY    11  -1  58 SE7       30.39S WCI   0
INDIANA*       CLEAR     12   1  62 SE10      30.46S WCI  -1
LATROBE        MOCLDY    10   0  61 CALM      30.43R
WASHINGTON CO* CLOUDY     4   1  88 CALM      30.42S
$$

PAZ004>006-010>012-017>019-024>028-033>037-041-042-045-046-049>053-151400-
CENTRAL PENNSYLVANIA

CITY           SKY/WX    TMP DP  RH WIND       PRES   REMARKS
BRADFORD       FAIR       2  -2  83 SE8       30.38R WCI -12
DUBOIS         FAIR       4  -2  76 E9        30.40R WCI -10
CLEARFIELD     FAIR       4   0  83 NE9       30.47S WCI -10
JOHNSTOWN      FAIR       6   0  76 S5        30.36S WCI  -3
ALTOONA        FAIR       8   2  76 CALM      30.49S
STATE COLLEGE  CLEAR      5   0  78 CALM      30.52S
WILLIAMSPORT   FAIR       5   3  91 N3        30.61S
SELINSGROVE    FAIR       6   4  91 N3        30.62R
FT INDIANTOWN  CLOUDY    11   8  86 CALM      30.60S
CAPITAL CITY   FAIR      14   4  64 CALM      30.62R
HARRISBURG     FAIR      13   4  67 CALM      30.62R
YORK           FAIR       7   6  96 CALM      30.59R
$$

PAZ038>040-043-044-047-048-054-055-060>062-067>071-151400-
EASTERN PENNSYLVANIA

CITY           SKY/WX    TMP DP  RH WIND       PRES   REMARKS
SCRANTON       MOCLDY    10   1  67 N7        30.58S WCI  -1
MOUNT POCONO   CLOUDY     8   3  80 E7        30.47F WCI  -3
ALLENTOWN      CLOUDY    16   3  56 E12       30.62F WCI   3
QUAKERTOWN*    CLOUDY    14   5  67 SW7       30.61S WCI   4
READING        CLOUDY    15   6  67 NE5       30.61F WCI   8
LANCASTER      CLOUDY    15   7  70 NE8       30.60S WCI   4
COATESVILLE    CLOUDY    16   5  62 NE6       30.58S WCI   7
POTTSTOWN      CLOUDY    15   4  61 NE6       30.64R WCI   6
BLUE BELL      CLOUDY    18   7  62 NE6       30.63S WCI   9
DOYLESTOWN     CLOUDY    16   4  59 NE8       30.60F WCI   5
WILLOW GROVE   NOT AVBL
NORTH PHILA    CLOUDY    19   6  57 NE13      30.64S WCI   6
PHILADELPHIA   CLOUDY    19   6  57 NE14      30.63S WCI   6
$$




USA.gov is the U.S. government's official web portal to all federal, state and local government web resources and services.